Location: Newark
(40.4667°N, 5.6000°W)
Time: 08:08:45
(UTC+00:00)

Explorer 7 - Visible Passes

Search period start: 13 November 2019 00:00
Search period end: 23 November 2019 00:00
Orbit: 485 x 680 km, 50.3° (Epoch: 12 November)

Date Brightness Start Highest point End Pass type
(mag) Time Alt. Az. Time Alt. Az. Time Alt. Az.
13 Nov 8.5 05:20:06 20° N 05:20:18 20° N 05:23:20 10° NE visible
14 Nov 8.5 05:24:57 19° NNW 05:25:34 20° N 05:28:34 10° NE visible
15 Nov 8.5 05:29:47 19° NNW 05:30:49 21° N 05:33:55 10° ENE visible
16 Nov 8.4 05:34:37 20° NNW 05:36:04 24° NNE 05:39:19 10° ENE visible
17 Nov 8.1 05:39:28 21° NNW 05:41:16 29° NNE 05:44:43 10° E visible
18 Nov 9.9 04:08:02 11° NE 04:08:02 11° NE 04:08:11 10° NE visible
18 Nov 7.7 05:44:21 22° NNW 05:46:25 38° NNE 05:50:05 10° E visible
19 Nov 9.8 04:12:57 13° NE 04:12:57 13° NE 04:13:33 10° ENE visible
19 Nov 7.2 05:49:17 24° NW 05:51:29 55° NNE 05:55:19 10° ESE visible
20 Nov 9.6 04:17:55 16° ENE 04:17:55 16° ENE 04:18:57 10° ENE visible
20 Nov 6.7 05:54:15 25° NW 05:56:30 85° NE 06:00:23 10° ESE visible
21 Nov 9.3 04:22:56 19° ENE 04:22:56 19° ENE 04:24:21 10° E visible
21 Nov 6.9 05:59:17 25° WNW 06:01:26 59° SW 06:05:14 10° SE visible
22 Nov 9.1 04:28:02 22° E 04:28:02 22° E 04:29:40 10° E visible
22 Nov 7.6 06:04:22 22° W 06:06:16 34° SW 06:09:49 10° SSE visible
